Location: Broekland
(52.3610°N, 6.2005°E)
Time: 06:20:16
(UTC+00:00)

Cosmos 2298 Rocket - Pass Details

Date: 19 May 2025
Orbit: 773 x 782 km, 74.0° (Epoch: 14 June)

Event Time Altitude Azimuth Distance (km) Brightness Sun altitude
Rises 21:16:10 0° 333° (NNW) 3,282 9.4 -11.9°
Reaches altitude 10° 21:18:34 10° 333° (NNW) 2,350 8.1 -12.1°
Maximum altitude 21:23:55 81° 247° (WSW) 799 4.1 -12.5°
Enters shadow 21:27:58 18° 162° (SSE) 1,856 5.4 -12.8°
